Regional Weather Roundup
Issued by NWS Cleveland, OH

Home | Current Version | Previous Version | Graphics & Text | Print | Product List | Glossary On
Versions: 1 2 3 4 5 6 7 8 9 10 11 12 13 14 15 16 17 18 19 20 21 22 23 24 25 26 27 28 29 30 31 32 33 34 35 36 37 38 39 40 41 42 43 44 45 46 47 48 49 50
000
ASUS41 KCLE 241202
RWRCLE
OHIO REGIONAL WEATHER ROUNDUP
NATIONAL WEATHER SERVICE CLEVELAND, OH
800 AM EDT FRI MAR 24 2017

NOTE: "FAIR" INDICATES FEW OR NO CLOUDS BELOW 12,000 FEET WITH NO
SIGNIFICANT WEATHER AND/OR OBSTRUCTIONS TO VISIBILITY.

OHZ001>008-015>018-024>027-034-035-043-044-241300-
   NORTHWEST OHIO

CITY           SKY/WX    TMP DP  RH WIND       PRES   REMARKS
DEFIANCE       CLOUDY    50  40  68 S13G22    30.06R
FINDLAY        MOCLDY    54  41  61 S17       30.08R
TOLEDO EXPRESS CLOUDY    51  41  68 SW17G23   30.04R
TOLEDO EXEC    MOCLDY    51  42  71 SW14      30.06R
LIMA           MOCLDY    53  42  66 S16       30.11R
$$

OHZ009>014-019>023-028>033-038-089-241300-
   NORTHEAST OHIO

CITY           SKY/WX    TMP DP  RH WIND       PRES   REMARKS
CLE-HOPKINS    CLOUDY    51  33  50 S17G29    30.12S
CLE-LAKEFRONT  CLOUDY    52  36  54 S23G38    30.07S
CUY CO. ARPT   MOCLDY    52  36  54 S18G33    30.09S
LORAIN-ELYRIA  MOCLDY    47  34  60 S14       30.10S
ASHTABULA      CLOUDY    43  38  82 S9        30.10S
AKRON-CANTON   CLOUDY    46  34  62 S16       30.16R
WOOSTER        PTCLDY    44  33  65 S12       30.15F
MANSFIELD      CLOUDY    53  39  59 S21       30.14R
YOUNGSTOWN     CLOUDY    48  38  68 S12       30.15R
$$

OHZ042-051>053-060>062-070>072-077>081-241300-
  SOUTHWEST OHIO

CITY           SKY/WX    TMP DP  RH WIND       PRES   REMARKS
CINC-COVINGTON MOCLDY    51  41  68 S9        30.17R
CINC-LUNKEN    MOCLDY    51  41  68 SW6       30.20R
HAMILTON       CLOUDY    53  41  63 S5        30.18R
DAYTON         CLOUDY    54  40  59 S18       30.15R
WRIGHT-PAT AFB CLOUDY    56  41  57 S13       30.16R
DAYTON GENERAL PTCLDY    53  41  63 S18       30.15S
WILMINGTON     CLOUDY    50  41  71 S12       30.19R
$$

OHZ036-037-039>041-045>050-054>059-063>069-073>076-082>088-241300-
  CENTRAL AND SOUTHEAST OHIO

CITY           SKY/WX    TMP DP  RH WIND       PRES   REMARKS
COLUMBUS       CLOUDY    53  35  50 S8        30.19R
OSU AIRPORT    CLOUDY    50  35  56 S8        30.18R
BOLTON FIELD   CLOUDY    46  35  64 S6        30.19S
RICKENBACK AFB CLOUDY    50  35  57 S10       30.19S
NEWARK         CLOUDY    49  33  54 VRB3      30.19R
MARION         MOCLDY    50  37  61 S16       30.15R
LANCASTER      PTCLDY    53  37  54 S7        30.21R
ZANESVILLE     CLOUDY    50  30  46 S8        30.22R
NEW PHILLY     NOT AVBL
$$




USA.gov is the U.S. government's official web portal to all federal, state and local government web resources and services.